Regional Weather Roundup
Issued by NWS Northern Indiana

Home | Current Version | Previous Version | Text Only | Print | Product List | Glossary On
Versions: 1 2 3 4 5 6 7 8 9 10 11 12 13 14 15 16 17 18 19 20 21 22 23 24 25 26 27 28 29 30 31 32 33 34 35 36 37 38 39 40 41 42 43 44 45 46 47 48 49 50
000
ASUS43 KIWX 292010
RWRIWX

KIWX WEATHER ROUNDUP
NATIONAL WEATHER SERVICE NORTHERN INDIANA
400 PM EDT FRI MAY 29 2015

NOTE: "FAIR" INDICATES FEW OR NO CLOUDS BELOW 12,000 FEET WITH NO
SIGNIFICANT WEATHER AND/OR OBSTRUCTIONS TO VISIBILITY.

* THESE STATIONS ARE NOT UNDER NWS QUALITY CONTROL. THEY ALSO MAY NOT
  REPORT WEATHER SUCH AS PRECIPITATION OR FOG.

INZ001>027-292100-
NORTHERN INDIANA

CITY           SKY/WX    TMP DP  RH WIND       PRES   REMARKS
GARY*          PTSUNNY   84  63  48 S14G25    29.96F
VALPARAISO     MOSUNNY   82  63  52 S15G21    29.99F
MICHIGAN CITY* MOSUNNY   81  63  54 SW10G18   29.98F
LAPORTE*       MOSUNNY   86  60  42 SW22G28   29.99F
KNOX*          PTSUNNY   84  61  45 S13       29.98F
SOUTH BEND     PTSUNNY   84  63  49 SW17G24   29.99F
ELKHART*       CLOUDY    82  63  51 SW13      30.00F
GOSHEN         MOSUNNY   83  63  50 S14G22    30.00F
MONTICELLO*    MOSUNNY   84  65  53 SW14G23   30.00F
LOGANSPORT*    PTSUNNY   82  59  44 S16       30.02F
ROCHESTER*     PTSUNNY   86  63  45 S10G17    30.02F
WARSAW*        MOSUNNY   81  63  54 SW6       30.02F
ANGOLA*        MOSUNNY   86  81  84 SW9       30.03F HX 102
FORT WAYNE     PTSUNNY   83  63  50 SW13      30.04F
HUNTINGTON*    PTSUNNY   81  62  53 S12       30.03F
PERU/GRISSOM   PTSUNNY   84  67  57 S13G21    30.01F
MARION*        CLOUDY    81  63  53 S16       30.05F

$$
INZ028>050-292100-
CENTRAL INDIANA

CITY           SKY/WX    TMP DP  RH WIND       PRES   REMARKS
LAFAYETTE      MOSUNNY   81  63  54 SW8       30.00F
KOKOMO*        PTSUNNY   82  68  61 S6        30.03F
MUNCIE*        MOSUNNY   80  69  69 SW7       30.05F
INDIANAPOLIS   MOSUNNY   84  64  50 S16       30.04F

$$
MIZ043>046-050>051-056>058-064>065-071>073-077>080-292100-
SOUTHWEST LOWER MICHIGAN

CITY           SKY/WX    TMP DP  RH WIND       PRES   REMARKS
BATTLE CREEK   MOSUNNY   84  63  49 S13       30.01F
BENTON HARBOR  CLOUDY    73  70  90 VRB3      29.99F
COLDWATER*     MOSUNNY   82  60  47 SW10G16   30.02F
HILLSDALE*     MOSUNNY   83  62  50 S10       30.05F
HOLLAND        LGT RAIN  72  68  87 SW14      30.03R FOG
GRAND RAPIDS   LGT RAIN  80  64  58 S8        29.98F
KALAMAZOO      MOSUNNY   83  63  50 S14G24    30.00F
STURGIS*       MOSUNNY   82  63  51 S12G21    30.01F
THREE RIVERS*  FAIR      84  60  44 S13G21    30.01F

$$
OHZ001>008-015>018-024>025-292100-
NORTHWEST OHIO

CITY           SKY/WX    TMP DP  RH WIND       PRES   REMARKS
WAUSEON*       PTSUNNY   82  66  57 S12G18    30.05F
DEFIANCE       MOSUNNY   84  65  52 S9        30.04F
FINDLAY        MOSUNNY   83  67  58 S15G22    30.06F
TOLEDO EXPRESS PTSUNNY   82  65  56 SW12      30.05F
TOLEDO METCALF MOSUNNY   83  66  56 S15G21    30.06F
LIMA           MOSUNNY   82  66  58 S10G22    30.07F

$$
AND FOR LAKE MICHIGAN COASTAL AND OPEN LAKE BUOY OBSERVATIONS

STATION/POSITION TEMP    WIND        PRES    VSBY  WAVE
                 AIR SEA DIR/SP/G                  HT/PER
                 (F)     (DEG/KT/KT) (MB)    (MI)  (FT/S)
CALUMET HARBOR    75     160/  2/  4   N/A
MICHIGAN CITY     79     170/ 17/ 24   N/A
BURNS HARBOR      80     200/ 16/ 23 1015.2F
SAINT JOSEPH      70     190/  3/  4 1016.3F
SOUTH LAKE BUOY   49 38  170/  8/ 10 1015.2F         0
4 MI NW BRIDGMAN  61 58  130/  4/  6   N/A           1/ 2
MICHIGAN CITY     62 57   10/  6/  8   N/A           1

$$
&&


USA.gov is the U.S. government's official web portal to all federal, state and local government web resources and services.